Regional Weather Roundup
Issued by NWS

Home | Current Version | Previous Version | Text Only | Print | Product List | Glossary Off
Versions: 1 2 3 4 5 6 7 8 9 10 11 12 13 14 15 16 17 18 19 20 21 22 23 24 25 26 27 28 29 30 31 32 33 34 35 36 37 38 39 40 41 42 43 44 45 46 47 48 49 50

005
ASUS43 KBIS 210810
RWRND

NORTH DAKOTA REGIONAL WEATHER ROUNDUP
NATIONAL WEATHER SERVICE BISMARCK ND
300 AM CDT SAT APR 21 2018

NOTE: "FAIR" INDICATES FEW OR NO CLOUDS BELOW 12,000 FEET WITH NO
SIGNIFICANT WEATHER AND/OR OBSTRUCTIONS TO VISIBILITY.


NDZ001>003-009>011-017-210900-
NORTHWEST NORTH DAKOTA

CITY           SKY/WX    TMP DP  RH WIND       PRES   REMARKS
WILLISTON      CLEAR     44  38  79 SE6       30.16S
MINOT          CLEAR     46  36  68 S17G25    30.19S
MINOT AFB      CLEAR     43  36  76 SW16      30.18R
$$

NDZ018>021-031>035-040>046-210900-
SOUTHWEST NORTH DAKOTA

CITY           SKY/WX    TMP DP  RH WIND       PRES   REMARKS
BISMARCK       MOCLDY    40  36  86 S8        30.27F
DICKINSON      CLEAR     37  35  92 S13       30.18S
GARRISON         N/A     38  34  85 CALM      30.22F
HETTINGER ARPT CLOUDY    40  36  86 S14       30.23S
$$

NDZ004>008-012>016-024-026-027-054-210900-
NORTHEAST NORTH DAKOTA

CITY           SKY/WX    TMP DP  RH WIND       PRES   REMARKS
GRAND FORKS    FAIR      34  34 100 S8        30.34S
GRND FRKS AFB  FAIR      35  33  95 S9        30.33S
DEVILS LAKE    CLOUDY    33  31  92 SE5       30.29S
$$

NDZ022-023-025-028>030-036>039-047>053-210900-
SOUTHEAST NORTH DAKOTA

CITY           SKY/WX    TMP DP  RH WIND       PRES   REMARKS
FARGO          FAIR      37  33  85 S10       30.36S
JAMESTOWN      CLEAR     36  33  89 S8        30.30S
$$





USA.gov is the U.S. government's official web portal to all federal, state and local government web resources and services.